EWG29X LROP-LGSK

Flight info

Callsign EWG29X
Flight time 1h 5m
Altitude 38000
Route POLUN DCT TIMUR/N0456F370 DCT NIKTI UY505 PEREN/N0459F380 UM603 TSL/N0454F370 UL617 LEKPO/N0408F230 L617 IBIDI
Aircraft A319/M-SDE3FGHIRWY/LB1

Departure

Time 2026-05-01 11:32
Airport Bucharest Henri Coandă International Airport (LROP)

Arrival

Time 2026-05-01 12:37
Airport Skiathos Island National Airport (LGSK)
Time Latitude Longitude Altitude Speed Heading
2026-05-01 11:09 44.56881 26.08810 323 ft 0 kts 173°
2026-05-01 11:25 44.56860 26.08813 322 ft 8 kts 174°
2026-05-01 11:26 44.56827 26.08734 322 ft 15 kts 266°
2026-05-01 11:26 44.56885 26.08431 323 ft 17 kts 257°
2026-05-01 11:26 44.56823 26.08245 323 ft 25 kts 242°
2026-05-01 11:27 44.56754 26.08007 323 ft 28 kts 255°
2026-05-01 11:27 44.56717 26.07816 320 ft 15 kts 255°
2026-05-01 11:27 44.56676 26.07678 323 ft 14 kts 218°
2026-05-01 11:27 44.56600 26.07671 321 ft 7 kts 174°
2026-05-01 11:28 44.56595 26.07671 322 ft 0 kts 174°
2026-05-01 11:30 44.56583 26.07673 322 ft 8 kts 174°
2026-05-01 11:30 44.56477 26.07727 323 ft 22 kts 122°
2026-05-01 11:31 44.56477 26.07853 323 ft 0 kts 85°
2026-05-01 11:31 44.56478 26.07857 323 ft 1 kts 85°
2026-05-01 11:31 44.56487 26.07972 324 ft 38 kts 84°
2026-05-01 11:31 44.56538 26.08639 323 ft 98 kts 84°
2026-05-01 11:32 44.56631 26.09847 324 ft 151 kts 83°
2026-05-01 11:32 44.56738 26.11411 761 ft 164 kts 82°
2026-05-01 11:32 44.56840 26.13035 1502 ft 169 kts 81°
2026-05-01 11:32 44.56971 26.14738 2070 ft 187 kts 81°
2026-05-01 11:33 44.57129 26.16682 2567 ft 213 kts 81°
2026-05-01 11:33 44.57304 26.18864 3191 ft 238 kts 81°
2026-05-01 11:33 44.57490 26.21259 4051 ft 252 kts 82°
2026-05-01 11:33 44.57677 26.23728 5181 ft 258 kts 82°
2026-05-01 11:34 44.57864 26.26249 6314 ft 262 kts 82°
2026-05-01 11:34 44.57977 26.28821 7360 ft 270 kts 92°
2026-05-01 11:34 44.57391 26.31352 8364 ft 281 kts 120°
2026-05-01 11:34 44.55982 26.33287 9397 ft 290 kts 149°
2026-05-01 11:35 44.54038 26.34121 10383 ft 298 kts 173°
2026-05-01 11:35 44.51915 26.34437 10916 ft 319 kts 174°
2026-05-01 11:35 44.49618 26.34752 11243 ft 343 kts 174°
2026-05-01 11:35 44.47187 26.35077 11817 ft 355 kts 174°
2026-05-01 11:36 44.44739 26.35410 12593 ft 360 kts 174°
2026-05-01 11:36 44.42213 26.35542 13381 ft 366 kts 185°
2026-05-01 11:36 44.39725 26.34709 14171 ft 371 kts 202°
2026-05-01 11:36 44.37506 26.32867 14879 ft 374 kts 220°
2026-05-01 11:37 44.35764 26.30175 15584 ft 375 kts 238°
2026-05-01 11:37 44.34666 26.26882 16296 ft 375 kts 255°
2026-05-01 11:37 44.33945 26.23361 17039 ft 378 kts 256°
2026-05-01 11:37 44.33223 26.19818 17767 ft 381 kts 256°
2026-05-01 11:38 44.32739 26.17451 18245 ft 384 kts 256°
2026-05-01 11:38 44.31999 26.13858 18918 ft 387 kts 256°
2026-05-01 11:38 44.31246 26.10220 19575 ft 390 kts 256°
2026-05-01 11:38 44.30487 26.06577 20245 ft 392 kts 256°
2026-05-01 11:39 44.29722 26.02919 20925 ft 394 kts 256°
2026-05-01 11:39 44.28951 25.99235 21571 ft 396 kts 256°
2026-05-01 11:39 44.28175 25.95529 22198 ft 398 kts 255°
2026-05-01 11:39 44.27397 25.91812 22801 ft 400 kts 255°
2026-05-01 11:40 44.26614 25.88074 23395 ft 402 kts 255°
2026-05-01 11:40 44.25826 25.84320 23957 ft 405 kts 255°
2026-05-01 11:40 44.25031 25.80543 24435 ft 407 kts 255°
2026-05-01 11:40 44.24364 25.76705 24876 ft 408 kts 263°
2026-05-01 11:41 44.24146 25.72755 25319 ft 410 kts 271°
2026-05-01 11:41 44.24138 25.68767 25786 ft 412 kts 271°
2026-05-01 11:41 44.24119 25.64766 26260 ft 414 kts 271°
2026-05-01 11:41 44.24093 25.60741 26725 ft 417 kts 271°
2026-05-01 11:42 44.24063 25.56687 27183 ft 419 kts 271°
2026-05-01 11:42 44.24029 25.52616 27636 ft 421 kts 271°
2026-05-01 11:42 44.23992 25.48521 28040 ft 424 kts 270°
2026-05-01 11:42 44.23957 25.44396 28455 ft 427 kts 270°
2026-05-01 11:43 44.23920 25.40246 28870 ft 429 kts 270°
2026-05-01 11:43 44.23880 25.36074 29268 ft 431 kts 270°
2026-05-01 11:43 44.23837 25.31876 29630 ft 435 kts 270°
2026-05-01 11:44 44.22964 25.23496 30374 ft 443 kts 254°
2026-05-01 11:44 44.21790 25.19492 30673 ft 448 kts 244°
2026-05-01 11:44 44.20148 25.15789 30988 ft 452 kts 235°
2026-05-01 11:44 44.18234 25.12314 31377 ft 452 kts 234°
2026-05-01 11:45 44.16319 25.08838 31765 ft 452 kts 234°
2026-05-01 11:45 44.14406 25.05357 32141 ft 453 kts 234°
2026-05-01 11:45 44.12490 25.01873 32507 ft 453 kts 234°
2026-05-01 11:45 44.10569 24.98393 32891 ft 454 kts 234°
2026-05-01 11:46 44.08643 24.94911 33267 ft 454 kts 234°
2026-05-01 11:46 44.06713 24.91432 33649 ft 455 kts 234°
2026-05-01 11:46 44.04783 24.87951 34039 ft 455 kts 234°
2026-05-01 11:46 44.02847 24.84456 34406 ft 455 kts 234°
2026-05-01 11:47 44.00915 24.80972 34738 ft 456 kts 234°
2026-05-01 11:47 43.98977 24.77480 35082 ft 455 kts 234°
2026-05-01 11:47 43.97042 24.74006 35432 ft 455 kts 234°
2026-05-01 11:47 43.95104 24.70530 35778 ft 455 kts 234°
2026-05-01 11:48 43.93170 24.67065 36107 ft 455 kts 234°
2026-05-01 11:48 43.91231 24.63592 36399 ft 455 kts 234°
2026-05-01 11:48 43.89289 24.60124 36706 ft 456 kts 234°
2026-05-01 11:48 43.87343 24.56653 37024 ft 455 kts 234°
2026-05-01 11:49 43.85399 24.53191 37342 ft 455 kts 234°
2026-05-01 11:49 43.83461 24.49737 37677 ft 454 kts 234°
2026-05-01 11:49 43.81521 24.46279 37998 ft 453 kts 234°
2026-05-01 11:49 43.79583 24.42836 38270 ft 454 kts 234°
2026-05-01 11:50 43.75709 24.35980 38339 ft 450 kts 234°
2026-05-01 11:50 43.71682 24.29362 38340 ft 452 kts 224°
2026-05-01 11:51 43.69161 24.26743 38332 ft 455 kts 213°
2026-05-01 11:51 43.66304 24.24838 38336 ft 458 kts 201°
2026-05-01 11:51 43.63211 24.23731 38336 ft 462 kts 190°
2026-05-01 11:51 43.59999 24.23401 38339 ft 464 kts 184°
2026-05-01 11:52 43.53546 24.23048 38340 ft 464 kts 184°
2026-05-01 11:52 43.47088 24.22691 38337 ft 464 kts 184°
2026-05-01 11:53 43.40627 24.22331 38354 ft 465 kts 185°
2026-05-01 11:53 43.34168 24.21962 38352 ft 464 kts 185°
2026-05-01 11:54 43.27707 24.21594 38340 ft 464 kts 185°
2026-05-01 11:54 43.21245 24.21239 38345 ft 464 kts 185°
2026-05-01 11:55 43.14782 24.20882 38352 ft 464 kts 185°
2026-05-01 11:55 43.08325 24.20522 38340 ft 464 kts 185°
2026-05-01 11:56 43.01871 24.20165 38342 ft 464 kts 185°
2026-05-01 11:56 42.95415 24.19805 38346 ft 464 kts 185°
2026-05-01 11:57 42.88974 24.19436 38334 ft 463 kts 185°
2026-05-01 11:57 42.82536 24.19079 38335 ft 463 kts 185°
2026-05-01 11:58 42.76105 24.18732 38339 ft 463 kts 185°
2026-05-01 11:59 42.66460 24.18203 38315 ft 462 kts 185°
2026-05-01 11:59 42.60029 24.17857 38311 ft 462 kts 186°
2026-05-01 12:00 42.50392 24.17325 38303 ft 462 kts 186°
2026-05-01 12:01 42.40768 24.16798 38301 ft 461 kts 186°
2026-05-01 12:01 42.34363 24.16446 38293 ft 460 kts 186°
2026-05-01 12:02 42.27963 24.16100 38298 ft 460 kts 186°
2026-05-01 12:02 42.21605 24.15749 38304 ft 460 kts 186°
2026-05-01 12:03 42.15206 24.15404 38304 ft 460 kts 186°
2026-05-01 12:03 42.08808 24.15065 38305 ft 460 kts 186°
2026-05-01 12:04 42.02413 24.14718 38300 ft 460 kts 186°
2026-05-01 12:04 41.96020 24.14371 38284 ft 459 kts 186°
2026-05-01 12:05 41.89637 24.14033 38286 ft 459 kts 186°
2026-05-01 12:05 41.80060 24.13524 38268 ft 459 kts 187°
2026-05-01 12:06 41.73686 24.13181 38257 ft 459 kts 187°
2026-05-01 12:06 41.67311 24.12832 38254 ft 459 kts 187°
2026-05-01 12:07 41.60978 24.12498 38226 ft 458 kts 187°
2026-05-01 12:07 41.54605 24.12151 38238 ft 458 kts 188°
2026-05-01 12:08 41.48290 24.11360 38232 ft 455 kts 192°
2026-05-01 12:08 41.42030 24.10170 38208 ft 454 kts 193°
2026-05-01 12:09 41.35777 24.08999 38207 ft 454 kts 192°
2026-05-01 12:09 41.29511 24.07944 38209 ft 454 kts 192°
2026-05-01 12:10 41.20642 24.04972 38207 ft 419 kts 212°
2026-05-01 12:11 41.12618 24.01010 38222 ft 416 kts 195°
2026-05-01 12:11 41.06809 23.99785 38220 ft 429 kts 194°
2026-05-01 12:12 41.00818 23.98538 38227 ft 442 kts 194°
2026-05-01 12:12 40.94658 23.97270 38225 ft 451 kts 194°
2026-05-01 12:13 40.88450 23.95999 38223 ft 452 kts 194°
2026-05-01 12:13 40.82232 23.94712 38224 ft 452 kts 194°
2026-05-01 12:14 40.76063 23.93437 38230 ft 451 kts 194°
2026-05-01 12:14 40.69856 23.92154 38223 ft 452 kts 194°
2026-05-01 12:15 40.63649 23.90876 38212 ft 451 kts 195°
2026-05-01 12:15 40.57445 23.89605 38230 ft 451 kts 195°
2026-05-01 12:16 40.51229 23.88333 38156 ft 452 kts 195°
2026-05-01 12:16 40.48097 23.87688 37322 ft 459 kts 195°
2026-05-01 12:16 40.44932 23.87037 36379 ft 460 kts 195°
2026-05-01 12:17 40.41768 23.86390 35259 ft 461 kts 196°
2026-05-01 12:17 40.38604 23.85745 34143 ft 460 kts 197°
2026-05-01 12:17 40.35441 23.85103 32804 ft 460 kts 196°
2026-05-01 12:17 40.32279 23.84462 31411 ft 459 kts 195°
2026-05-01 12:18 40.29120 23.83822 29934 ft 460 kts 195°
2026-05-01 12:18 40.25966 23.83181 28512 ft 455 kts 195°
2026-05-01 12:18 40.22895 23.82565 27953 ft 435 kts 194°
2026-05-01 12:18 40.19954 23.81981 27314 ft 424 kts 194°
2026-05-01 12:19 40.17992 23.81586 26845 ft 421 kts 194°
2026-05-01 12:19 40.15104 23.80998 26169 ft 418 kts 194°
2026-05-01 12:19 40.12242 23.80412 25504 ft 415 kts 194°
2026-05-01 12:19 40.09435 23.79839 24852 ft 412 kts 194°
2026-05-01 12:20 40.06610 23.79263 24196 ft 409 kts 194°
2026-05-01 12:20 40.03810 23.78693 23502 ft 406 kts 194°
2026-05-01 12:20 40.01030 23.78133 22830 ft 401 kts 194°
2026-05-01 12:20 39.98286 23.77585 22211 ft 397 kts 193°
2026-05-01 12:21 39.95573 23.77042 21590 ft 393 kts 193°
2026-05-01 12:21 39.92876 23.76500 20993 ft 390 kts 193°
2026-05-01 12:21 39.90211 23.75964 20429 ft 386 kts 193°
2026-05-01 12:21 39.87566 23.75431 19861 ft 382 kts 193°
2026-05-01 12:22 39.84951 23.74899 19324 ft 378 kts 193°
2026-05-01 12:22 39.82368 23.74376 18794 ft 374 kts 193°
2026-05-01 12:22 39.79796 23.73857 18225 ft 370 kts 192°
2026-05-01 12:22 39.77266 23.73348 17677 ft 365 kts 192°
2026-05-01 12:23 39.74776 23.72848 17153 ft 361 kts 192°
2026-05-01 12:23 39.72331 23.72359 16604 ft 359 kts 192°
2026-05-01 12:23 39.69872 23.71867 16059 ft 357 kts 192°
2026-05-01 12:23 39.67424 23.71379 15487 ft 354 kts 192°
2026-05-01 12:24 39.64999 23.70896 14914 ft 352 kts 192°
2026-05-01 12:24 39.62585 23.70415 14340 ft 350 kts 192°
2026-05-01 12:24 39.60186 23.69939 13724 ft 348 kts 192°
2026-05-01 12:24 39.57798 23.69468 13117 ft 345 kts 192°
2026-05-01 12:25 39.55432 23.69002 12542 ft 342 kts 192°
2026-05-01 12:25 39.50764 23.68072 11371 ft 337 kts 192°
2026-05-01 12:25 39.48462 23.67612 10937 ft 330 kts 192°
2026-05-01 12:26 39.46248 23.67176 10809 ft 315 kts 193°
2026-05-01 12:26 39.42106 23.66366 10385 ft 291 kts 193°
2026-05-01 12:26 39.40119 23.65971 9949 ft 288 kts 192°
2026-05-01 12:27 39.38143 23.65574 9513 ft 288 kts 193°
2026-05-01 12:27 39.34197 23.64785 8937 ft 286 kts 191°
2026-05-01 12:28 39.30246 23.64000 8096 ft 288 kts 191°
2026-05-01 12:28 39.28273 23.63610 7639 ft 285 kts 189°
2026-05-01 12:28 39.24338 23.62838 6383 ft 286 kts 187°
2026-05-01 12:29 39.22387 23.62454 5871 ft 280 kts 187°
2026-05-01 12:29 39.20472 23.62074 5312 ft 277 kts 187°
2026-05-01 12:29 39.16793 23.60759 4195 ft 276 kts 206°
2026-05-01 12:30 39.13594 23.58659 4005 ft 235 kts 205°
2026-05-01 12:30 39.12177 23.57730 3892 ft 224 kts 204°
2026-05-01 12:30 39.10809 23.56836 3636 ft 215 kts 204°
2026-05-01 12:31 39.09491 23.55976 3307 ft 210 kts 204°
2026-05-01 12:31 39.08200 23.55136 3005 ft 205 kts 205°
2026-05-01 12:31 39.06929 23.54311 2535 ft 205 kts 205°
2026-05-01 12:31 39.05649 23.53483 2066 ft 205 kts 205°
2026-05-01 12:32 39.04382 23.52661 1996 ft 196 kts 205°
2026-05-01 12:32 39.02396 23.50877 1977 ft 169 kts 248°
2026-05-01 12:32 39.02331 23.49449 1818 ft 153 kts 296°
2026-05-01 12:33 39.02993 23.48630 1615 ft 124 kts 353°
2026-05-01 12:33 39.03815 23.48650 1476 ft 116 kts 11°
2026-05-01 12:33 39.04613 23.48775 1317 ft 116 kts
2026-05-01 12:33 39.05419 23.48748 1164 ft 116 kts
2026-05-01 12:34 39.06215 23.48630 1006 ft 114 kts
2026-05-01 12:34 39.06995 23.48488 944 ft 111 kts 359°
2026-05-01 12:34 39.07777 23.48350 995 ft 114 kts 359°
2026-05-01 12:34 39.08563 23.48210 999 ft 114 kts 359°
2026-05-01 12:35 39.09355 23.48067 1006 ft 115 kts 359°
2026-05-01 12:35 39.10150 23.47918 1011 ft 115 kts 359°
2026-05-01 12:35 39.10942 23.47773 1013 ft 114 kts 359°
2026-05-01 12:35 39.11729 23.47759 998 ft 113 kts
2026-05-01 12:36 39.12492 23.47931 998 ft 110 kts 20°
2026-05-01 12:36 39.13252 23.48233 912 ft 117 kts 24°
2026-05-01 12:36 39.14008 23.48594 749 ft 116 kts 25°
2026-05-01 12:36 39.14766 23.48987 546 ft 118 kts 23°
2026-05-01 12:37 39.15521 23.49364 326 ft 115 kts 24°
2026-05-01 12:37 39.16269 23.49715 170 ft 119 kts 22°
2026-05-01 12:37 39.17040 23.50062 45 ft 115 kts 23°
2026-05-01 12:37 39.17594 23.50320 39 ft 33 kts 18°
2026-05-01 12:38 39.17699 23.50290 40 ft 10 kts 281°
2026-05-01 12:38 39.17724 23.50276 40 ft 0 kts
2026-05-01 12:40 39.17736 23.50281 41 ft 5 kts 17°
2026-05-01 12:40 39.17801 23.50308 41 ft 15 kts 19°
2026-05-01 12:40 39.17885 23.50304 41 ft 13 kts 298°
2026-05-01 12:40 39.17903 23.50239 41 ft 0 kts 289°
2026-05-01 12:41 39.17921 23.50253 41 ft 0 kts 288°